Terug naar catalogus

STARLINK-3525

ActiefCommunicatieVLEO
NORAD 51733·PAYLOAD·🇺🇸 United States

Gelanceerd Feb 21, 2022 vanaf Cape Canaveral Space Force Station

Loading…

Volgende Passages (komende 24 uur)

TLE

VersSource: CelesTrak SupGP

Epoch: Sep 14, 2026, 21:59 UTC

1 51733C 22016V   26257.91645833 -.00051498  00000+0 -15216-2 0  2573
2 51733  53.1578 175.5988 0001314  90.7251 306.5665 15.34415321    17

Volg STARLINK-3525 in realtime met AllMySat

Download on the App Store